Location: Allie Creek
(37.5926°N, 89.8526°W)
Time: 21:21:53
(UTC+00:00)

NOSS 3-1 (C) - Pass Details

Date: 26 September 2023
Orbit: 670 x 1537 km, 63.4° (Epoch: 01 December)

Event Time Altitude Azimuth Distance (km) Brightness Sun altitude
Rises 00:48:45 0° 187° (S) 3,002 6.1 -12.1°
Reaches altitude 10° 00:51:07 10° 177° (S) 2,119 5.2 -12.5°
Maximum altitude 00:55:23 34° 113° (ESE) 1,189 3.5 -13.4°
Drops below altitude 10° 01:00:10 10° 49° (NE) 2,392 5.2 -14.3°
Sets 01:03:00 0° 41° (NE) 3,452 6.1 -14.9°
